Flag for U.S.A. Weather past 2 weeks in Bismarck, North Dakota, U.S.A.

Now
31 °F

Clear.


Feels Like: 31 °F
Forecast: 35 / 71 °F
Wind: No wind

Location: Bismarck Municipal Airport

Current Time: Mar 31, 2015 at 3:48:39 AM

Latest Report: Mar 31, 2015 at 2:52 AM


Visibility: 10 mi

Pressure: 29.98 "Hg

Humidity: 89%

Dew point: 28 °F

Location of BismarckLocation

Historic Weather in Bismarck — Graph

°F

Bismarck temperature yesterday

Maximum temperature yesterday: 67 °F (at 3:52 PM)
Minimum temperature yesterday: 32 °F (at 5:52 AM)
Average temperature yesterday: 50 °F

Past Weeks' High & Low Weather Summary

 TemperatureHumidityPressure
High67 °F (Mar 30, 3:52 PM)100% (Mar 28, 2:52 AM)30.65 "Hg (Mar 28, 2:52 AM)
Low18 °F (Mar 17, 7:52 AM)22% (Mar 17, 1:52 PM)29.48 "Hg (Mar 28, 7:52 PM)
Average37 °F69%30.10 "Hg
* Reported Mar 16 2:52 AM — Mar 31 2:52 AM, Bismarck, Weather by CustomWeather, © 2015

Note: Actual official high and low records may vary slightly from our data, if they occured in-between our weather recording intervals... More about our weather records

Advertising

Bismarck weather history for previous 24 hours

 ConditionsComfort  
Time TempWeatherWind HumidityBarometerVisibility
2:52 AM
Tue, Mar 31
31 °FClear.No wind89%29.98 "Hg10 mi
1:52 AM37 °FClear.3 mph79%29.98 "Hg10 mi
12:52 AM38 °FClear.5 mph76%29.98 "Hg10 mi
11:52 PM
Mon, Mar 30
40 °FClear.No wind73%29.98 "Hg10 mi
10:52 PM41 °FClear.No wind70%29.98 "Hg10 mi
9:52 PM49 °FClear.No wind55%29.97 "Hg10 mi
8:52 PM55 °FPassing clouds.No wind44%29.95 "Hg10 mi
7:52 PM61 °FPartly sunny.7 mph35%29.94 "Hg10 mi
6:52 PM65 °FSunny.18 mph27%29.93 "Hg10 mi
5:52 PM67 °FPassing clouds.18 mph26%29.93 "Hg10 mi
4:52 PM67 °FPassing clouds.20 mph27%29.93 "Hg10 mi
3:52 PM67 °FSunny.23 mph27%29.93 "Hg10 mi
2:52 PM66 °FSunny.25 mph31%29.93 "Hg10 mi
1:52 PM64 °FSunny.25 mph35%29.92 "Hg10 mi
12:52 PM63 °FSunny.22 mph37%29.91 "Hg10 mi
11:52 AM60 °FSunny.17 mph41%29.90 "Hg10 mi
10:52 AM57 °FSunny.23 mph44%29.89 "Hg10 mi
9:52 AM51 °FSunny.14 mph52%29.87 "Hg10 mi
8:52 AM43 °FSunny.6 mph65%29.88 "Hg10 mi
7:52 AM36 °FClear.3 mph75%29.88 "Hg10 mi
6:52 AM38 °FClear.7 mph73%29.87 "Hg10 mi
5:52 AM32 °FClear.5 mph82%29.88 "Hg10 mi
4:52 AM35 °FClear.No wind75%29.89 "Hg10 mi
3:52 AM34 °FClear.No wind79%29.92 "Hg10 mi
Weather by CustomWeather, © 2015

See weather overviewHow to use our weather pages